カタログに戻る

THORAD DELTA 1 DEB

運用中LEO
NORAD 8170·DEBRIS·🇺🇸 United States

打ち上げ Nov 15, 1974 から Vandenberg Space Force Base

Loading…

次のパス (今後24時間)

TLE

最新Source: Space-Track

元期: Sep 14, 2026, 03:39 UTC

1 08170U 74089AL  26257.15250226  .00014745  00000-0  60132-2 0  9994
2 08170 101.6073 321.8662 0059017 165.9340 222.1345 14.26569160502684

AllMySatでTHORAD DELTA 1 DEBをリアルタイム追跡

Download on the App Store